AirNav   Air Wisconsin pilot careers
 
 698 users online  

2M4 G V Montgomery Airport
Forest, Mississippi, USA

GOING TO FOREST?


FAA INFORMATION EFFECTIVE 08 NOVEMBER 2018

Location

FAA Identifier: 2M4
Lat/Long: 32-21-17.8000N / 089-29-17.4000W
32-21.296667N / 089-29.290000W
32.3549444 / -89.4881667
(estimated)
Elevation: 518.3 ft. / 158.0 m (surveyed)
Variation: 02E (1985)
From city: 1 mile S of FOREST, MS
Time zone: UTC -6 (UTC -5 during Daylight Saving Time)
Zip code: 39074

Airport Operations

Airport use: Open to the public
Control tower: no
ARTCC: MEMPHIS CENTER
FSS: GREENWOOD FLIGHT SERVICE STATION
NOTAMs facility: GWO (NOTAM-D service available)
Attendance: UNATNDD
Wind indicator: lighted
Segmented circle: yes
Lights: MIRL RWY 16/34 OPS 1700-2200; AFT 2200 ACTVT - CTAF.
Beacon: white-green (lighted land airport)
Operates sunset to sunrise.

Airport Communications

CTAF/UNICOM: 122.8

Nearby radio navigation aids

VOR radial/distance  VOR name  Freq  Var
MHZr100/31.3MAGNOLIA VORTAC113.2001W
MEIr263/34.7MERIDIAN VORTAC117.0005E

Airport Services

Parking: tiedowns
Airframe service: NONE
Powerplant service: NONE
Bottled oxygen: NONE
Bulk oxygen: NONE

Runway Information

Runway 16/34

Dimensions: 3602 x 75 ft. / 1098 x 23 m
Surface: asphalt, in excellent condition
Weight bearing capacity: 
Single wheel: 25.0
Runway edge lights: medium intensity
RUNWAY 16  RUNWAY 34
Latitude: 32-21.582278N32-21.011120N
Longitude: 089-29.386510W089-29.194222W
Elevation: 511.2 ft.514.0 ft.
Gradient: 0.3%0.3%
Traffic pattern: leftleft
Markings: basic, in good conditionbasic, in good condition
Touchdown point: yes, no lightsyes, no lights
Obstructions: 50 ft. trees, 1300 ft. from runway, 22:1 slope to clear39 ft. tree, 850 ft. from runway, 16:1 slope to clear

Airport Ownership and Management from official FAA records

Ownership: Publicly-owned
Owner: CITY OF FOREST
P.O. BOX 298
FOREST, MS 39074
Phone 601-469-2921
THE HONORABLE NANCY CHAMBERS, MAYOR OF FOREST
Manager: RANDALL GEORGE
CITY OF FOREST, P.O.BOX 298
FOREST, MS 39074
Phone 601-469-2921
CITY HALL PHONE.

Airport Operational Statistics

Aircraft based on the field: 2
Single engine airplanes: 2
    
Aircraft operations: avg 20/week *
65% transient general aviation
35% local general aviation
* for 12-month period ending 15 March 2018

Instrument Procedures

There are no published instrument procedures at 2M4.

Some nearby airports with instrument procedures:

KJAN - Jackson-Medgar Wiley Evers International Airport (30 nm W)
KMBO - Bruce Campbell Field Airport (32 nm W)
KMPE - Philadelphia Municipal Airport (32 nm NE)
17M - Magee Municipal Airport (34 nm SW)
KHKS - Hawkins Field Airport (37 nm W)
 
Loc | Ops | Rwys | IFR | FBO | Links
Com | Nav | Svcs | Stats | Notes


 
Area around 2M4 (G V Montgomery Airport)
 
Road maps at: MapQuest Bing Google
 
Aerial photo
WARNING: Photo may not be current or correct
Aerial photo of 2M4 (G V Montgomery Airport)
Do you have a better or more recent aerial photo of G V Montgomery Airport that you would like to share? If so, please send us your photo.

 
Sectional chart

 
Airport distance calculator
Flying to G V Montgomery Airport? Find the distance to fly.

From to 2M4

Sunrise and sunset
Times for 21-Nov-2018
 Local
(UTC-6)
 Zulu
(UTC)
Morning civil twilight06:0712:07
Sunrise06:3412:34
Sunset16:5422:54
Evening civil twilight17:2023:20

Current date and time
Zulu (UTC)  21-Nov-2018 12:54:44
Local (UTC-6)  21-Nov-2018 06:54:44
 
METAR
KJAN 
30nm W 
211154Z 13004KT 7SM CLR 01/00 A3034 RMK AO2 SLP276 T00060000 10039 20000 53009 $
KMBO 
32nm W 
211235Z AUTO 00000KT 2SM BR CLR 00/00 A3035 RMK AO2
KHKS 
37nm W 
211238Z AUTO 00000KT 1 3/4SM BR CLR 01/01 A3036 RMK AO2 T00110011
KMEI 
37nm E 
211158Z 20003KT 10SM CLR 01/M01 A3036 RMK AO2 SLP280 T00061011 10028 20000 53013
KJVW 
47nm W 
211235Z AUTO 00000KT 3SM BR M01/M00 A3036 RMK AO2
KNMM 
48nm E 
211156Z 00000KT 7SM FEW340 01/M01 A3035 RMK AO2 SLP290 T00061006 10022 20000 51018 $
TAF
KJAN 
30nm W 
211144Z 2112/2212 00000KT 3SM BR SKC FM211400 02005KT P6SM SKC
KHKS 
37nm W 
211144Z 2112/2212 35004KT 5SM BR SKC FM211400 02005KT P6SM SKC
KMEI 
37nm E 
211144Z 2112/2212 00000KT 3SM BR SCT003 FM211400 01005KT P6SM SKC
NOTAMs
Click for the latest NOTAMs
NOTAMs are issued by the DoD/FAA and will open in a separate window not controlled by AirNav.

 

 
 

Would you like to see your business listed on this page?

 If your business provides an interesting product or service to pilots, flight crews, aircraft, or users of the G V Montgomery Airport, you should consider listing it here.  To start the listing process, click on the button below
 
Add a business
 

Other Pages about G V Montgomery Airport

Update a link
 
Copyright © AirNav, LLC. All rights reserved. Privacy Policy  Contact